Location: Houston
(29.7630°N, 95.3630°W)
Time: 10:20:09
(UTC-06:00)

Amateur Radio Satellites - All Passes

Search period start: 29 January 2015 09:50
Search period end: 30 January 2015 09:50
Location: Houston, 29.7630°N, 95.3630°W

Satellite Date Start Highest point End Downlink Frequencies (MHz)
Time Altitude Azimuth
DELFI C3 29 Jan 09:51:49 09:55:46 53° 100° (E) 09:59:43 145.870
BUGSAT 1 29 Jan 09:53:14 09:55:20 14° 71° (ENE) 09:57:38 437.445
DOVE 4 29 Jan 09:53:34 09:58:33 50° 285° (WNW) 10:03:13 437.250
POLYITAN 1 29 Jan 09:54:58 09:58:13 22° 72° (ENE) 10:01:36 437.675
AISAT 29 Jan 09:56:16 09:58:19 13° 92° (E) 10:00:38 437.250
UWE-3 29 Jan 09:56:25 10:00:37 41° 98° (E) 10:04:42 435.000/436.395/437.385
AAUSAT CUBESAT 2 29 Jan 09:56:38 10:00:33 41° 285° (WNW) 10:04:26 437.432
UNISAT 6 29 Jan 09:57:22 10:01:51 44° 75° (ENE) 10:06:21 437.425
CUTE 1.7 + AOD 2 29 Jan 10:09:38 10:12:35 18° 288° (WNW) 10:15:22 437.475
Oscar 11 29 Jan 10:09:47 10:14:04 69° 283° (WNW) 10:18:20 145.826/435.025
VERMONT LUNAR 29 Jan 10:11:30 10:13:51 17° 349° (N) 10:16:12 437.305
POPSAT HIP 1 29 Jan 10:14:17 10:18:11 37° 75° (ENE) 10:22:11 437.405
DUCHIFAT 1 29 Jan 10:16:54 10:20:51 39° 75° (ENE) 10:24:52 145.980
VELOX 1 29 Jan 10:23:01 10:26:50 28° 97° (E) 10:30:44 145.980
CUBEBUG 1 29 Jan 10:32:53 10:34:51 13° 92° (E) 10:37:04 437.445
ANTELSAT 29 Jan 10:33:06 10:37:49 69° 259° (W) 10:42:31 437.575/2403.000
SO-50 29 Jan 10:33:50 10:38:13 51° 300° (WNW) 10:42:46 436.795
50 SAT 29 Jan 10:39:02 10:42:49 40° 98° (E) 10:46:36 437.505
TIGRISAT 29 Jan 10:40:55 10:45:33 57° 260° (W) 10:50:12 435.000
UKube-1 29 Jan 10:45:14 10:49:27 49° 285° (WNW) 10:53:39 .
BEESAT 2 29 Jan 10:48:09 10:49:28 11° 50° (NE) 10:51:00 435.950
NANOSAT C BR1 29 Jan 10:51:10 10:55:25 72° 259° (W) 10:59:41 145.865
CUBEBUG 2 29 Jan 10:53:05 10:57:06 31° 287° (WNW) 11:00:56 437.445
ZACube-1 29 Jan 11:00:22 11:04:25 36° 286° (WNW) 11:08:20 437.345
BEESAT 3 29 Jan 11:00:58 11:03:49 18° 54° (NE) 11:06:44 437.485
HUMSAT D 29 Jan 11:02:45 11:06:57 67° 283° (WNW) 11:11:04 437.325/437.525
HO-68 29 Jan 11:05:11 11:09:02 15° 297° (WNW) 11:12:26 435.675
QB50P2 29 Jan 11:05:42 11:09:48 45° 261° (W) 11:13:55 145.880/145.840
DX 1 29 Jan 11:06:33 11:10:17 26° 287° (WNW) 11:13:54 434.975-435.025
PHONESAT 2.4 29 Jan 11:10:55 11:13:13 16° 354° (N) 11:15:30 2401.200-2431.200
FUNcube-1 29 Jan 11:12:37 11:16:19 27° 287° (WNW) 11:19:53 145.935
QB50P1 29 Jan 11:15:15 11:19:09 34° 262° (W) 11:23:04 145.935-145.965
BUGSAT 1 29 Jan 11:26:56 11:30:36 32° 263° (W) 11:34:17 437.445
POLYITAN 1 29 Jan 11:30:39 11:34:05 23° 265° (W) 11:37:27 437.675
AISAT 29 Jan 11:30:55 11:35:10 40° 286° (WNW) 11:39:21 437.250
ESTCUBE 1 29 Jan 11:33:37 11:38:10 84° 100° (E) 11:42:43 437.505/2401.250
UWE-3 29 Jan 11:34:43 11:36:49 13° 291° (WNW) 11:38:38 435.000/436.395/437.385
UNISAT 6 29 Jan 11:36:29 11:38:53 13° 268° (W) 11:41:00 437.425
AIST 1 29 Jan 11:48:49 11:52:57 51° 278° (W) 11:57:06
VERMONT LUNAR 29 Jan 11:50:45 11:52:51 15° 6° (N) 11:54:58 437.305
POPSAT HIP 1 29 Jan 11:52:13 11:54:18 13° 268° (W) 11:56:09 437.405
SPROUT 29 Jan 11:52:41 11:56:17 26° 96° (E) 11:59:55 437.525
DUCHIFAT 1 29 Jan 11:55:09 11:56:56 12° 268° (W) 11:58:28 145.980
VELOX 1 29 Jan 11:59:59 12:03:17 20° 289° (WNW) 12:06:26 145.980
CUBEBUG 1 29 Jan 12:07:16 12:11:27 40° 286° (WNW) 12:15:35 437.445
GONETS M04 29 Jan 12:10:21 12:18:14 39° 77° (ENE) 12:26:15
50 SAT 29 Jan 12:16:27 12:17:38 11° 290° (WNW) 12:18:32 437.505
AIST 2 29 Jan 12:20:14 12:24:22 49° 60° (ENE) 12:28:27 435.215
RS-15 29 Jan 12:20:47 12:27:35 18° 37° (NE) 12:35:13 29.354- 29.394
BEESAT 2 29 Jan 12:24:01 12:28:04 50° 246° (WSW) 12:32:00 435.950
TISAT 1 29 Jan 12:28:57 12:33:15 74° 103° (ESE) 12:37:30 437.305
BEESAT 3 29 Jan 12:38:25 12:42:00 28° 248° (WSW) 12:45:28 437.485
PHONESAT 2.4 29 Jan 12:50:07 12:52:40 18° 11° (N) 12:55:15 2401.200-2431.200
Oscar 19 29 Jan 12:54:10 12:59:13 55° 75° (ENE) 13:04:19 437.125/150
SWISSCUBE 29 Jan 12:57:17 13:00:44 20° 95° (E) 13:04:22 437.505
PCSat 29 Jan 12:58:44 13:01:46 15° 52° (NE) 13:05:02 145.827
ITAMSAT 1 29 Jan 13:11:32 13:15:41 26° 71° (ENE) 13:19:59 435.822/435.867
BEESAT 29 Jan 13:12:35 13:16:38 28° 97° (E) 13:20:45 436.000
ITUPSAT 1 29 Jan 13:16:27 13:20:38 30° 97° (E) 13:24:53 437.325
VERMONT LUNAR 29 Jan 13:28:22 13:31:37 34° 23° (NNE) 13:34:53 437.305
SPROUT 29 Jan 13:29:02 13:32:15 20° 288° (WNW) 13:35:19 437.525
GONETS M04 29 Jan 14:07:17 14:14:59 35° 271° (W) 14:22:30
Gurwin Techsat 1B 29 Jan 14:08:23 14:13:38 68° 76° (ENE) 14:18:55 435.225
HORYU 2 29 Jan 14:13:52 14:17:00 19° 71° (ENE) 14:20:17 437.375
AO-7 29 Jan 14:23:40 14:29:44 24° 63° (ENE) 14:36:08 29.400- 29.500
PHONESAT 2.4 29 Jan 14:28:10 14:31:45 54° 27° (NNE) 14:35:20 2401.200-2431.200
RS-15 29 Jan 14:31:01 14:42:30 73° 61° (ENE) 14:54:31 29.354- 29.394
SWISSCUBE 29 Jan 14:34:28 14:38:39 30° 287° (WNW) 14:42:46 437.505
Oscar 19 29 Jan 14:36:34 14:38:58 13° 269° (W) 14:40:59 437.125/150
PCSat 29 Jan 14:40:19 14:45:38 58° 249° (WSW) 14:50:55 145.827
BEESAT 29 Jan 14:50:39 14:54:22 22° 289° (WNW) 14:57:57 436.000
ITAMSAT 1 29 Jan 14:50:41 14:55:07 28° 264° (W) 14:59:28 435.822/435.867
ITUPSAT 1 29 Jan 14:54:47 14:58:23 21° 289° (WNW) 15:01:50 437.325
STARS 29 Jan 15:00:09 15:04:29 53° 100° (E) 15:08:49 437.465
DANDE 29 Jan 15:01:04 15:05:55 25° 69° (ENE) 15:09:53 436.750
VERMONT LUNAR 29 Jan 15:06:30 15:09:44 34° 216° (SW) 15:12:57 437.305
KKS-1 29 Jan 15:06:54 15:11:24 77° 283° (WNW) 15:15:50 437.445
JUGNU 29 Jan 15:13:30 15:15:45 12° 161° (SSE) 15:18:09 437.505
M-CUBED/EXP-1 PRIME 29 Jan 15:25:01 15:28:07 34° 104° (ESE) 15:31:22 437.505
CUSAT 1 29 Jan 15:28:26 15:34:00 60° 79° (ENE) 15:38:06 437.405
HORYU 2 29 Jan 15:49:35 15:53:31 28° 263° (W) 15:57:23 437.375
Gurwin Techsat 1B 29 Jan 15:53:20 15:54:10 10° 270° (W) 15:54:31 435.225
O/OREOS (USA 219) 29 Jan 15:53:31 15:57:53 59° 106° (ESE) 16:02:20 437.305
AUBIESAT-1 29 Jan 15:57:47 16:01:08 79° 287° (WNW) 16:04:40 437.475
PHONESAT 2.4 29 Jan 16:07:20 16:10:09 21° 218° (SW) 16:12:56 2401.200-2431.200
AO-7 29 Jan 16:13:43 16:22:00 64° 257° (WSW) 16:30:17 29.400- 29.500
JAS-2 29 Jan 16:27:13 16:32:58 83° 78° (ENE) 16:38:15 435.910
STARS 29 Jan 16:39:45 16:40:34 10° 291° (WNW) 16:41:05 437.465
DANDE 29 Jan 16:44:32 16:49:18 25° 274° (W) 16:52:58 436.750
RS-15 29 Jan 16:45:18 16:54:17 25° 254° (WSW) 17:02:49 29.354- 29.394
MOZHAYETS 4 29 Jan 16:47:55 16:52:18 45° 99° (E) 16:56:41
Cubesat XI-IV 29 Jan 16:56:59 17:00:32 19° 69° (ENE) 17:04:19 437.490
JUGNU 29 Jan 16:59:35 17:04:16 24° 169° (S) 17:09:00 437.505
CUTE-I 29 Jan 17:15:51 17:20:20 29° 71° (ENE) 17:24:56 437.470
SRMSAT 29 Jan 17:40:59 17:45:02 19° 165° (SSE) 17:49:10 437.500
MOZHAYETS 4 29 Jan 18:27:05 18:29:12 13° 290° (WNW) 18:31:03
PRISM 29 Jan 18:34:30 18:38:38 68° 101° (ESE) 18:42:47 437.425
Cubesat XI-IV 29 Jan 18:35:24 18:40:23 40° 261° (W) 18:45:22 437.490
CUBESAT XI-V 29 Jan 18:41:15 18:45:52 55° 100° (E) 18:50:29 437.345
JUGNU 29 Jan 18:47:38 18:52:50 32° 179° (S) 18:58:05 437.505
CUTE-I 29 Jan 18:55:59 19:00:24 26° 264° (W) 19:04:42 437.470
STRAND 1 29 Jan 18:57:19 19:02:21 54° 100° (E) 19:07:24 437.568
YUBILEINY 29 Jan 19:01:16 19:09:01 39° 89° (E) 19:16:56 435.215
SO-50 29 Jan 19:11:14 19:15:29 29° 56° (NE) 19:19:47 436.795
BRITE-PL 29 Jan 19:13:50 19:16:29 15° 68° (ENE) 19:19:30 437.365/2234.400
SRMSAT 29 Jan 19:28:37 19:33:45 30° 174° (S) 19:38:54 437.500
HO-68 29 Jan 19:37:19 19:43:27 33° 68° (ENE) 19:49:45 435.675
SEEDS 29 Jan 19:50:59 19:53:52 18° 72° (ENE) 19:56:53 437.485
COMPASS 1 29 Jan 20:16:00 20:19:41 30° 74° (ENE) 20:23:25 437.405
CUBESAT XI-V 29 Jan 20:21:23 20:22:55 11° 291° (WNW) 20:24:08 437.345
CANX-2 29 Jan 20:31:07 20:35:25 82° 78° (ENE) 20:39:43 2200.000
DELFI C3 29 Jan 20:35:41 20:38:02 16° 72° (ENE) 20:40:35 145.870
CINEMA 3 29 Jan 20:36:12 20:40:24 30° 73° (ENE) 20:44:47 145.822/145.860
JUGNU 29 Jan 20:36:29 20:41:27 27° 189° (S) 20:46:24 437.505
STRAND 1 29 Jan 20:38:31 20:41:10 14° 292° (WNW) 20:43:31 437.568
AAUSAT CUBESAT 2 29 Jan 20:41:27 20:45:34 56° 76° (ENE) 20:49:42 437.432
GOMX 1 29 Jan 20:42:19 20:47:15 88° 251° (WSW) 20:52:34 467.674
UWE-3 29 Jan 20:48:28 20:51:36 19° 71° (ENE) 20:54:55 435.000/436.395/437.385
BRITE-PL 29 Jan 20:49:47 20:54:31 49° 262° (W) 20:59:39 437.365/2234.400
SO-50 29 Jan 20:51:53 20:55:58 25° 249° (WSW) 20:59:53 436.795
DOVE 4 29 Jan 20:52:10 20:57:07 84° 75° (ENE) 21:02:21 437.250
CUTE 1.7 + AOD 2 29 Jan 20:55:19 20:59:31 53° 260° (W) 21:03:43 437.475
YUBILEINY 29 Jan 20:58:05 21:05:53 35° 284° (WNW) 21:13:32 435.215
Oscar 11 29 Jan 20:58:38 21:02:42 41° 75° (ENE) 21:06:48 145.826/435.025
ISS 29 Jan 21:02:37 21:05:53 90° 292° (WNW) 21:09:10 145.825
VELOX 1 29 Jan 21:17:02 21:18:48 13° 69° (ENE) 21:20:49 145.980
SRMSAT 29 Jan 21:17:18 21:22:32 31° 184° (S) 21:27:44 437.500
50 SAT 29 Jan 21:22:45 21:24:18 12° 71° (ENE) 21:26:06 437.505
HO-68 29 Jan 21:24:33 21:31:06 37° 262° (W) 21:37:32 435.675
SEEDS 29 Jan 21:25:55 21:29:33 26° 264° (W) 21:33:07 437.485
UKube-1 29 Jan 21:34:05 21:38:21 62° 75° (ENE) 21:42:38 .
CUBEBUG 2 29 Jan 21:44:13 21:48:56 81° 259° (W) 21:53:44 437.445
HUMSAT D 29 Jan 21:48:48 21:52:48 38° 75° (ENE) 21:56:52 437.325/437.525
ZACube-1 29 Jan 21:49:33 21:54:07 80° 78° (ENE) 21:58:45 437.345
COMPASS 1 29 Jan 21:52:52 21:55:30 15° 267° (W) 21:57:55 437.405
DX 1 29 Jan 21:55:31 21:59:49 66° 259° (WSW) 22:04:09 434.975-435.025
UNISAT 6 29 Jan 21:57:28 21:59:42 14° 92° (E) 22:02:08 437.425
FUNcube-1 29 Jan 22:01:20 22:05:53 75° 259° (W) 22:10:30 145.935
AIST 1 29 Jan 22:02:54 22:06:08 21° 77° (ENE) 22:09:29
DELFI C3 29 Jan 22:09:30 22:13:05 28° 263° (W) 22:16:38 145.870
DUCHIFAT 1 29 Jan 22:10:53 22:11:33 10° 91° (E) 22:12:32 145.980
CINEMA 3 29 Jan 22:13:47 22:17:38 22° 266° (W) 22:21:24 145.822/145.860
AISAT 29 Jan 22:22:37 22:27:03 85° 74° (ENE) 22:31:33 437.250
UWE-3 29 Jan 22:23:43 22:27:55 33° 263° (W) 22:32:08 435.000/436.395/437.385
JUGNU 29 Jan 22:26:33 22:30:00 15° 197° (SSW) 22:33:21 437.505
ESTCUBE 1 29 Jan 22:27:43 22:31:47 36° 74° (ENE) 22:35:55 437.505/2401.250
ANTELSAT 29 Jan 22:31:57 22:36:04 39° 98° (E) 22:40:07 437.575/2403.000
Oscar 11 29 Jan 22:37:16 22:39:07 12° 268° (W) 22:40:41 145.826/435.025
TIGRISAT 29 Jan 22:39:15 22:43:30 47° 99° (E) 22:47:39 435.000
NANOSAT C BR1 29 Jan 22:42:55 22:46:38 29° 97° (E) 22:50:23 145.865
VELOX 1 29 Jan 22:50:51 22:55:04 43° 261° (W) 22:59:18 145.980
50 SAT 29 Jan 22:55:16 22:59:08 38° 262° (W) 23:03:00 437.505
CUBEBUG 1 29 Jan 22:57:12 23:01:31 78° 77° (ENE) 23:05:53 437.445
QB50P2 29 Jan 22:57:15 23:01:23 46° 99° (E) 23:05:30 145.880/145.840
QB50P1 29 Jan 23:06:17 23:10:32 60° 100° (E) 23:14:45 145.935-145.965
SRMSAT 29 Jan 23:06:48 23:11:16 21° 193° (SSW) 23:15:39 437.500
BUGSAT 1 29 Jan 23:14:51 23:19:04 57° 100° (E) 23:23:16 437.445
TISAT 1 29 Jan 23:16:09 23:19:34 25° 73° (ENE) 23:23:05 437.305
POLYITAN 1 29 Jan 23:21:26 23:25:46 85° 283° (WNW) 23:30:02 437.675
HUMSAT D 29 Jan 23:26:39 23:28:48 13° 268° (W) 23:30:42 437.325/437.525
UNISAT 6 29 Jan 23:32:40 23:36:41 34° 286° (WNW) 23:40:35 437.425
AIST 1 29 Jan 23:40:17 23:43:45 22° 269° (W) 23:47:06
POPSAT HIP 1 29 Jan 23:41:17 23:45:26 47° 285° (WNW) 23:49:32 437.405
DUCHIFAT 1 29 Jan 23:43:35 23:47:42 45° 285° (WNW) 23:51:46 145.980
SWISSCUBE 30 Jan 00:00:00 00:01:46 12° 69° (ENE) 00:03:50 437.505
ESTCUBE 1 30 Jan 00:06:14 00:08:50 15° 267° (W) 00:11:12 437.505/2401.250
ANTELSAT 30 Jan 00:10:22 00:12:34 13° 290° (WNW) 00:14:30 437.575/2403.000
BEESAT 30 Jan 00:14:27 00:17:23 17° 70° (ENE) 00:20:30 436.000
SPROUT 30 Jan 00:16:11 00:20:23 53° 260° (W) 00:24:38 437.525
ITUPSAT 1 30 Jan 00:18:30 00:21:40 19° 70° (ENE) 00:25:00 437.325
TIGRISAT 30 Jan 00:18:31 00:19:52 11° 291° (WNW) 00:20:57 435.000
NANOSAT C BR1 30 Jan 00:19:27 00:22:19 17° 289° (WNW) 00:25:01 145.865
QB50P2 30 Jan 00:35:33 00:36:57 11° 290° (WNW) 00:38:05 145.880/145.840
BEESAT 3 30 Jan 00:50:31 00:52:30 14° 110° (ESE) 00:54:42 437.485
TISAT 1 30 Jan 00:52:17 00:55:24 19° 266° (W) 00:58:23 437.305
GONETS M04 30 Jan 01:03:13 01:11:38 55° 91° (E) 01:20:06
Oscar 19 30 Jan 01:12:18 01:16:49 32° 97° (E) 01:21:23 437.125/150
ITAMSAT 1 30 Jan 01:31:20 01:34:09 15° 93° (E) 01:37:16 435.822/435.867
SWISSCUBE 30 Jan 01:34:39 01:39:16 51° 260° (W) 01:43:54 437.505
BEESAT 30 Jan 01:50:35 01:54:59 37° 262° (W) 01:59:22 436.000
STARS 30 Jan 01:52:04 01:55:29 23° 72° (ENE) 01:59:01 437.465
ITUPSAT 1 30 Jan 01:55:03 01:59:22 33° 262° (W) 02:03:39 437.325
KKS-1 30 Jan 01:59:12 02:03:26 44° 75° (ENE) 02:07:44 437.445
M-CUBED/EXP-1 PRIME 30 Jan 02:09:18 02:12:22 21° 70° (ENE) 02:15:22 437.505
O/OREOS (USA 219) 30 Jan 02:09:33 02:13:53 42° 68° (ENE) 02:18:15 437.305
AIST 2 30 Jan 02:12:41 02:16:41 46° 114° (ESE) 02:20:48 435.215
BEESAT 2 30 Jan 02:12:56 02:16:58 60° 298° (WNW) 02:21:04 435.950
BEESAT 3 30 Jan 02:26:36 02:30:22 35° 302° (WNW) 02:34:09 437.485
Gurwin Techsat 1B 30 Jan 02:30:55 02:35:59 45° 99° (E) 02:41:04 435.225
AUBIESAT-1 30 Jan 02:40:57 02:44:55 48° 72° (ENE) 02:48:37 437.475
RS-15 30 Jan 02:41:53 02:46:11 14° 104° (ESE) 02:51:36 29.354- 29.394
CUSAT 1 30 Jan 02:46:43 02:51:20 18° 85° (E) 02:56:39 437.405
Oscar 19 30 Jan 02:52:02 02:56:01 22° 290° (WNW) 02:59:51 437.125/150
GONETS M04 30 Jan 03:01:52 03:08:57 25° 288° (WNW) 03:15:38
ITAMSAT 1 30 Jan 03:08:56 03:13:57 47° 286° (WNW) 03:18:56 435.822/435.867
STARS 30 Jan 03:28:16 03:31:53 23° 264° (W) 03:35:24 437.465
PCSat 30 Jan 03:32:47 03:37:51 44° 110° (ESE) 03:43:00 145.827
KKS-1 30 Jan 03:38:35 03:40:22 12° 268° (W) 03:41:52 437.445
JAS-2 30 Jan 03:43:22 03:46:14 14° 93° (E) 03:49:42 435.910
M-CUBED/EXP-1 PRIME 30 Jan 03:44:01 03:47:17 21° 258° (WSW) 03:50:16 437.505
MOZHAYETS 4 30 Jan 03:44:48 03:48:15 22° 72° (ENE) 03:51:48
HORYU 2 30 Jan 03:46:27 03:50:54 89° 102° (ESE) 03:55:19 437.375
O/OREOS (USA 219) 30 Jan 03:50:48 03:52:59 13° 259° (W) 03:54:54 437.305
AIST 2 30 Jan 03:53:29 03:55:37 13° 309° (NW) 03:57:35 435.215
DANDE 30 Jan 04:01:13 04:08:52 59° 93° (E) 04:17:24 436.750
Gurwin Techsat 1B 30 Jan 04:12:10 04:15:39 17° 291° (WNW) 04:18:55 435.225
AO-7 30 Jan 04:22:07 04:30:24 67° 104° (ESE) 04:38:38 29.400- 29.500
CUSAT 1 30 Jan 04:25:37 04:33:35 81° 279° (W) 04:42:07 437.405
RS-15 30 Jan 04:46:29 04:57:28 85° 115° (ESE) 05:08:26 29.354- 29.394
ISS 30 Jan 05:11:32 05:14:48 69° 44° (NE) 05:18:05 145.825
PCSat 30 Jan 05:17:32 05:21:31 20° 305° (NW) 05:25:21 145.827
PRISM 30 Jan 05:20:05 05:23:13 22° 72° (ENE) 05:26:27 437.425
Cubesat XI-IV 30 Jan 05:21:29 05:23:16 12° 91° (E) 05:25:27 437.490
MOZHAYETS 4 30 Jan 05:21:30 05:25:23 26° 264° (W) 05:29:10
YUBILEINY 30 Jan 05:21:44 05:24:53 13° 65° (ENE) 05:28:52 435.215
JAS-2 30 Jan 05:25:45 05:31:36 66° 284° (WNW) 05:38:14 435.910
CUBESAT XI-V 30 Jan 05:39:24 05:43:11 27° 73° (ENE) 05:47:04 437.345
CUTE-I 30 Jan 05:39:32 05:43:15 20° 94° (E) 05:47:10 437.470
DANDE 30 Jan 05:46:10 05:52:55 27° 290° (WNW) 05:59:45 436.750
STRAND 1 30 Jan 06:07:24 06:12:08 41° 74° (ENE) 06:16:57 437.568
VERMONT LUNAR 30 Jan 06:12:57 06:14:55 15° 140° (SE) 06:16:59 437.305
CUSAT 1 30 Jan 06:13:41 06:17:59 14° 296° (WNW) 06:21:40 437.405
AO-7 30 Jan 06:16:29 06:22:36 22° 298° (WNW) 06:28:21 29.400- 29.500
PRISM 30 Jan 06:55:33 06:58:42 20° 264° (W) 07:01:43 437.425
Cubesat XI-IV 30 Jan 06:58:31 07:03:50 61° 285° (WNW) 07:09:07 437.490
RS-15 30 Jan 07:03:04 07:11:24 23° 318° (NW) 07:19:20 29.354- 29.394
YUBILEINY 30 Jan 07:14:19 07:23:09 87° 86° (E) 07:32:00 435.215
PHONESAT 2.4 30 Jan 07:16:25 07:19:32 28° 143° (SE) 07:22:42 2401.200-2431.200
CUBESAT XI-V 30 Jan 07:17:06 07:20:37 21° 265° (W) 07:24:03 437.345
CUTE-I 30 Jan 07:18:30 07:23:29 39° 287° (WNW) 07:28:25 437.470
STRAND 1 30 Jan 07:48:17 07:51:34 16° 267° (W) 07:54:36 437.568
VERMONT LUNAR 30 Jan 07:49:19 07:52:47 68° 332° (NNW) 07:56:15 437.305
CANX-2 30 Jan 08:23:31 08:26:44 22° 95° (E) 08:30:04 2200.000
AAUSAT CUBESAT 2 30 Jan 08:32:29 08:34:37 14° 93° (E) 08:36:58 437.432
CINEMA 3 30 Jan 08:40:22 08:41:19 11° 89° (E) 08:42:36 145.822/145.860
CUTE 1.7 + AOD 2 30 Jan 08:46:56 08:50:52 39° 98° (E) 08:54:50 437.475
GOMX 1 30 Jan 08:50:58 08:56:06 48° 98° (E) 09:00:58 467.674
Oscar 11 30 Jan 08:54:11 08:55:39 12° 92° (E) 08:57:25 145.826/435.025
PHONESAT 2.4 30 Jan 08:54:37 08:58:02 40° 336° (NNW) 09:01:29 2401.200-2431.200
HO-68 30 Jan 08:58:01 09:05:04 61° 102° (ESE) 09:12:09 435.675
DOVE 4 30 Jan 08:58:23 09:03:07 39° 97° (E) 09:07:37 437.250
BRITE-PL 30 Jan 09:00:45 09:06:24 89° 301° (WNW) 09:11:42 437.365/2234.400
YUBILEINY 30 Jan 09:14:55 09:19:06 13° 277° (W) 09:22:30 435.215
SEEDS 30 Jan 09:15:52 09:20:03 81° 101° (E) 09:24:14 437.485
SO-50 30 Jan 09:20:05 09:24:06 34° 112° (ESE) 09:28:19 436.795
ANTELSAT 30 Jan 09:25:49 09:29:05 19° 71° (ENE) 09:32:30 437.575/2403.000
VERMONT LUNAR 30 Jan 09:28:46 09:31:17 18° 347° (NNW) 09:33:49 437.305
UKube-1 30 Jan 09:29:03 09:31:51 17° 94° (E) 09:34:49 .
TIGRISAT 30 Jan 09:32:33 09:36:08 23° 72° (ENE) 09:39:50 435.000
NANOSAT C BR1 30 Jan 09:32:39 09:33:32 11° 69° (ENE) 09:34:42 145.865
COMPASS 1 30 Jan 09:40:55 09:45:00 58° 284° (WNW) 09:49:04 437.405
